User: anonymous   Login
Location: Joplin
(37.0842°N, 94.5131°W)
Time: 04:20:43
(UTC-05:00)
Language:

EO-79 - Orbit

View from above orbital plane
View from above orbital plane
View from above satellite
View from above satellite

Ground track
Ground track

The orbit data is extracted from the following two-line orbital elements,

1 40025U 14033R   19142.81887460  .00000160  00000-0  23019-4 0  9997
2 40025  97.9066  62.5456 0013251 142.3370 217.8777 14.88927266267322
Epoch (UTC): 22 May 2019 19:39:10
Eccentricity: 0.0013251
inclination: 97.9066°
perigee height: 592 km
apogee height: 610 km
right ascension of ascending node: 62.5456°
argument of perigee: 142.3370°
revolutions per day: 14.88927266
mean anomaly at epoch: 217.8777°
orbit number at epoch: 26732

The dashed part of the orbit path shows where the satellite is in the earth's shadow,  

DLR